GW3497 Weather Reports


time (UTC)temp
C
wind
direction
speed
KPH
gust
KPH
rain 1hr
cm
rain 24hr
cm
rain mn
cm
humidity
%
barometer
mb
20260903143856 23 271 9.7 16.1 0.00 0.00 0.00 68 1016.2
20260903143358 23 288 9.7 19.3 0.00 0.00 0.00 68 1016.4
20260903142856 23 255 11.3 19.3 0.00 0.00 0.00 67 1016.4
20260903142357 23 279 9.7 22.5 0.00 0.00 0.00 66 1016.4
20260903141855 24 265 11.3 22.5 0.00 0.00 0.00 65 1016.5
20260903141354 24 258 12.9 19.3 0.00 0.00 0.00 65 1016.5
20260903140854 24 262 11.3 20.9 0.00 0.00 0.00 66 1016.6
20260903140356 24 250 9.7 22.5 0.00 0.00 0.00 64 1016.5
20260903135853 25 261 12.9 22.5 0.00 0.00 0.00 64 1016.6
20260903135352 25 259 9.7 25.7 0.00 0.00 0.00 62 1016.6
20260903134848 25 271 9.7 25.7 0.00 0.00 0.00 63 1016.6
20260903134349 25 275 9.7 24.1 0.00 0.00 0.00 65 1016.6
20260903133856 24 269 4.8 27.4 0.00 0.00 0.00 63 1016.9
20260903133655 24 275 17.7 27.4 0.00 0.00 0.00 62 1016.7
20260903132849 23 298 16.1 25.7 0.00 0.00 0.00 63 1016.5
20260903132350 24 231 19.3 32.2 0.00 0.00 0.00 63 1016.8
20260903131851 24 230 9.7 32.2 0.00 0.00 0.00 63 1016.9
20260903131349 25 282 11.3 22.5 0.00 0.00 0.00 66 1016.9
20260903130847 24 295 20.9 29.0 0.00 0.00 0.00 64 1017.0
20260903130649 24 317 16.1 37.0 0.00 0.00 0.00 64 1016.9
20260903125847 24 258 17.7 37.0 0.00 0.00 0.00 65 1016.9
20260903125345 25 261 16.1 19.3 0.00 0.00 0.00 65 1016.9
20260903124842 24 241 11.3 24.1 0.00 0.00 0.00 67 1016.8
20260903124342 23 243 14.5 24.1 0.00 0.00 0.00 67 1017.1
20260903123844 24 230 14.5 22.5 0.00 0.00 0.00 67 1017.2
20260903123344 23 274 11.3 22.5 0.00 0.00 0.00 67 1017.0
20260903123217 23 278 11.3 24.1 0.00 0.00 0.00 67 1017.1
20260903122345 23 240 14.5 24.1 0.00 0.00 0.00 68 1017.0
20260903121850 23 240 11.3 16.1 0.00 0.00 0.00 68 1017.1
20260903121345 22 295 9.7 19.3 0.00 0.00 0.00 69 1017.2
20260903120842 22 285 9.7 19.3 0.00 0.00 0.00 69 1017.2
20260903120350 22 243 9.7 20.9 0.00 0.00 0.00 69 1017.2
20260903115843 22 251 12.9 22.5 0.00 0.00 0.00 68 1017.3
20260903115338 22 264 17.7 24.1 0.00 0.00 0.00 68 1017.2
20260903114837 22 279 14.5 25.7 0.00 0.00 0.00 70 1017.3
20260903114527 21 237 11.3 19.3 0.00 0.00 0.00 72 1017.1
20260903114442 22 264 12.9 25.7 0.00 0.00 0.00 70 1017.2
20260903113338 21 245 9.7 30.6 0.00 0.00 0.00 73 1017.2
20260903112835 21 268 8.0 30.6 0.00 0.00 0.00 73 1017.2
20260903112334 21 275 9.7 22.5 0.00 0.00 0.00 72 1017.2
20260903112152 22 247 14.5 22.5 0.00 0.00 0.00 72 1017.2
20260903111336 22 299 6.4 20.9 0.00 0.00 0.00 72 1017.2
20260903111155 22 295 12.9 20.9 0.00 0.00 0.00 71 1017.2
20260903110341 22 233 14.5 20.9 0.00 0.00 0.00 72 1017.2
20260903105833 22 247 11.3 25.7 0.00 0.00 0.00 72 1017.2
20260903105332 22 245 12.9 30.6 0.00 0.00 0.00 73 1017.2
20260903104832 21 258 17.7 30.6 0.00 0.00 0.00 72 1017.3
20260903104630 21 220 12.9 25.7 0.00 0.00 0.00 74 1017.3
20260903103829 22 319 17.7 25.7 0.00 0.00 0.00 74 1017.3
20260903103333 21 264 12.9 20.9 0.00 0.00 0.00 74 1017.2
20260903102827 21 317 9.7 27.4 0.00 0.00 0.00 74 1017.1
20260903102327 21 248 16.1 27.4 0.00 0.00 0.00 76 1017.2
20260903101830 21 272 11.3 19.3 0.00 0.00 0.00 76 1017.3
20260903101624 21 278 6.4 22.5 0.00 0.00 0.00 78 1017.3
20260903100826 21 230 9.7 22.5 0.00 0.00 0.00 77 1017.3
20260903100324 20 245 8.0 17.7 0.00 0.00 0.00 79 1017.4
20260903095823 20 283 8.0 19.3 0.00 0.00 0.00 79 1017.4
20260903095619 20 312 9.7 22.5 0.00 0.00 0.00 78 1017.4
20260903094822 20 268 9.7 22.5 0.00 0.00 0.00 78 1017.6
20260903094321 21 286 11.3 22.5 0.00 0.00 0.00 78 1017.4
20260903093823 20 279 11.3 22.5 0.00 0.00 0.00 79 1017.3
20260903093323 20 278 12.9 25.7 0.00 0.00 0.00 78 1017.3
20260903092821 20 285 11.3 25.7 0.00 0.00 0.00 78 1017.2
20260903092323 20 303 9.7 24.1 0.00 0.00 0.00 79 1017.2
20260903091824 20 265 14.5 27.4 0.00 0.00 0.00 79 1017.2
20260903091625 20 258 17.7 27.4 0.00 0.00 0.00 79 1017.1
20260903090818 20 248 6.4 19.3 0.00 0.00 0.00 81 1017.2
20260903090321 20 247 9.7 19.3 0.00 0.00 0.00 81 1017.3
20260903085817 20 298 11.3 17.7 0.00 0.00 0.00 82 1017.2
20260903085318 20 299 6.4 17.7 0.00 0.00 0.00 82 1017.2
20260903084816 20 300 9.7 19.3 0.00 0.00 0.00 83 1017.3
20260903084314 19 285 6.4 19.3 0.00 0.00 0.00 84 1017.2
20260903083814 19 0.0 0.0 0.00 0.00 0.00 84 1017.3
20260903083610 19 0.0 0.0 0.00 0.00 0.00 83 1017.2
20260903082813 19 0.0 0.0 0.00 0.00 0.00 84 1017.2
20260903082312 19 0.0 0.0 0.00 0.00 0.00 85 1017.3
20260903081810 19 0.0 0.0 0.00 0.00 0.00 85 1017.1
20260903081310 19 0.0 0.0 0.00 0.00 0.00 85 1017.0
20260903080810 19 0.0 0.0 0.00 0.00 0.00 85 1016.9
20260903080322 19 0.0 0.0 0.00 0.00 0.00 85 1016.8
20260903075807 19 0.0 0.0 0.00 0.00 0.00 86 1016.7
20260903075605 19 0.0 0.0 0.00 0.00 0.00 86 1016.5
20260903074809 18 0.0 0.0 0.00 0.00 0.00 86 1016.5
20260903074307 18 0.0 0.0 0.00 0.00 0.00 86 1016.4
20260903074123 18 0.0 0.0 0.00 0.00 0.00 86 1016.3
20260903073306 18 0.0 0.0 0.00 0.00 0.00 86 1016.2
20260903073128 18 0.0 0.0 0.00 0.00 0.00 86 1016.1
20260903072306 18 0.0 0.0 0.00 0.00 0.00 86 1016.0
20260903071803 18 0.0 0.0 0.00 0.00 0.00 85 1015.9
20260903071305 18 0.0 0.0 0.00 0.00 0.00 85 1015.9
20260903070807 18 0.0 0.0 0.00 0.00 0.00 85 1015.8
20260903070558 18 0.0 0.0 0.00 0.00 0.00 84 1015.8
20260903070147 18 0.0 0.0 0.00 0.00 0.00 84 1015.9
20260903065305 18 0.0 0.0 0.00 0.00 0.00 84 1015.7
20260903064802 18 0.0 0.0 0.00 0.00 0.00 85 1015.6
20260903064602 18 0.0 0.0 0.00 0.00 0.00 85 1015.6
20260903064118 18 0.0 0.0 0.00 0.00 0.00 86 1015.7
20260903063555 18 0.0 0.0 0.00 0.00 0.00 86 1015.7
20260903062758 18 0.0 0.0 0.00 0.00 0.00 86 1015.8
20260903062259 18 0.0 0.0 0.00 0.00 0.00 87 1015.7
20260903061758 18 0.0 0.0 0.00 0.00 0.00 87 1015.9
20260903061257 18 0.0 0.0 0.00 0.00 0.00 88 1015.8
20260903061119 18 0.0 0.0 0.00 0.00 0.00 88 1015.8
20260903060257 18 0.0 0.0 0.00 0.00 0.00 88 1015.9
20260903055755 18 0.0 0.0 0.00 0.00 0.00 89 1015.9
20260903055255 18 0.0 0.0 0.00 0.00 0.00 89 1015.7
20260903054753 18 0.0 0.0 0.00 0.00 0.00 89 1015.7
20260903054250 18 0.0 0.0 0.00 0.00 0.00 90 1015.8
20260903054109 18 0.0 0.0 0.00 0.00 0.00 90 1015.7
20260903053250 18 0.0 0.0 0.00 0.00 0.00 90 1015.7
20260903052746 18 0.0 0.0 0.00 0.00 0.00 90 1015.7
20260903052248 18 0.0 0.0 0.00 0.00 0.00 90 1015.8
20260903051746 18 0.0 0.0 0.00 0.00 0.00 90 1015.5
20260903051246 18 0.0 0.0 0.00 0.00 0.00 90 1015.5
20260903050746 18 0.0 0.0 0.00 0.00 0.00 91 1015.5
20260903050300 18 0.0 0.0 0.00 0.00 0.00 91 1015.5
20260903045747 18 0.0 0.0 0.00 0.00 0.00 91 1015.6
20260903045246 17 0.0 0.0 0.00 0.00 0.00 91 1015.5
20260903044746 17 0.0 0.0 0.00 0.00 0.00 92 1015.4
20260903044246 17 0.0 0.0 0.00 0.00 0.00 92 1015.5
20260903043746 17 0.0 0.0 0.00 0.00 0.00 92 1015.6
20260903043245 17 0.0 0.0 0.00 0.00 0.00 92 1015.6
20260903042745 17 0.0 0.0 0.00 0.00 0.00 92 1015.6
20260903042247 17 0.0 0.0 0.00 0.00 0.00 92 1015.4
20260903041747 17 0.0 0.0 0.00 0.00 0.00 92 1015.4
20260903041553 17 0.0 0.0 0.00 0.00 0.00 92 1015.3
20260903040749 17 0.0 0.0 0.00 0.00 0.00 92 1015.4
20260903040549 17 0.0 0.0 0.00 0.00 0.00 92 1015.4
20260903035747 17 0.0 0.0 0.00 0.00 0.00 92 1015.4
20260903035249 17 0.0 0.0 0.00 0.00 0.00 92 1015.5
20260903034746 17 0.0 0.0 0.00 0.00 0.00 92 1015.4
20260903034245 17 0.0 0.0 0.00 0.00 0.00 92 1015.4
20260903033745 17 0.0 0.0 0.00 0.00 0.00 91 1015.6
20260903033245 17 0.0 0.0 0.00 0.00 0.00 91 1015.3
20260903032754 17 0.0 0.0 0.00 0.00 0.00 91 1015.4
20260903032547 17 0.0 0.0 0.00 0.00 0.00 91 1015.5
20260903031745 17 0.0 0.0 0.00 0.00 0.00 91 1015.6
20260903031245 17 0.0 0.0 0.00 0.00 0.00 91 1015.4
20260903030747 17 0.0 0.0 0.00 0.00 0.00 90 1015.7
20260903030255 17 0.0 0.0 0.00 0.00 0.00 90 1015.6
20260903025743 17 0.0 0.0 0.00 0.00 0.00 90 1015.7
20260903025245 17 0.0 0.0 0.00 0.00 0.00 90 1015.5
20260903025100 18 0.0 0.0 0.00 0.00 0.00 90 1015.5
20260903024548 17 0.0 0.0 0.00 0.00 0.00 90 1015.6
20260903023745 18 0.0 0.0 0.00 0.00 0.00 90 1015.6
20260903023244 18 0.0 0.0 0.00 0.00 0.00 90 1015.5
20260903022744 18 0.0 0.0 0.00 0.00 0.00 90 1015.6
20260903022245 18 0.0 0.0 0.00 0.00 0.00 90 1015.6
20260903021744 18 223 8.0 14.5 0.00 0.00 0.00 90 1015.5
20260903021243 18 223 8.0 19.3 0.00 0.00 0.00 90 1015.5
20260903020746 18 226 8.0 19.3 0.00 0.00 0.00 90 1015.2
20260903020244 18 250 6.4 19.3 0.00 0.00 0.00 90 1015.4
20260903015743 18 237 9.7 20.9 0.00 0.00 0.00 90 1015.4
20260903015241 18 262 8.0 20.9 0.00 0.00 0.00 90 1015.5
20260903014743 18 252 12.9 20.9 0.00 0.00 0.00 90 1015.6
20260903014242 18 231 6.4 16.1 0.00 0.00 0.00 90 1015.6
20260903013741 18 219 9.7 20.9 0.00 0.00 0.00 90 1015.7
20260903013242 18 244 11.3 20.9 0.00 0.00 0.00 90 1015.6
20260903013117 18 216 11.3 19.3 0.00 0.00 0.00 90 1015.6
20260903012240 18 251 6.4 20.9 0.00 0.00 0.00 90 1015.7
20260903011740 18 262 8.0 20.9 0.00 0.00 0.00 90 1015.7
20260903011239 18 251 8.0 14.5 0.00 0.00 0.00 90 1015.7
20260903010741 18 212 8.0 19.3 0.00 0.00 0.00 90 1015.7
20260903010239 18 269 8.0 19.3 0.00 0.00 0.00 90 1015.8
20260903005739 18 268 6.4 17.7 0.00 0.00 0.00 90 1015.9
20260903005242 18 243 11.3 17.7 0.00 0.00 0.00 90 1015.9
20260903004742 18 244 8.0 16.1 0.00 0.00 0.00 90 1016.1
20260903004242 18 241 8.0 25.7 0.00 0.00 0.00 90 1016.1
20260903003742 18 255 8.0 25.7 0.00 0.00 0.00 90 1016.2
20260903003241 18 231 9.7 17.7 0.00 0.00 0.00 90 1016.1
20260903002740 18 261 11.3 20.9 0.00 0.00 0.00 90 1016.2
20260903002241 18 250 9.7 22.5 0.00 0.00 0.00 90 1016.0
20260903001739 18 212 11.3 22.5 0.00 0.00 0.00 90 1016.1
20260903001240 18 252 11.3 20.9 0.00 0.00 0.00 90 1016.1
20260903000833 18 244 11.3 20.9 0.00 0.00 0.00 90 1016.2
20260902235737 18 233 9.7 17.7 0.00 0.00 0.00 90 1016.3
20260902235540 18 251 11.3 20.9 0.00 0.00 0.00 90 1016.2
20260902234737 18 248 9.7 20.9 0.00 0.00 0.00 90 1016.0
20260902234232 18 251 9.7 17.7 0.00 0.00 0.00 90 1016.1
20260902233731 18 216 9.7 17.7 0.00 0.00 0.00 90 1016.1
20260902233232 18 251 9.7 24.1 0.00 0.00 0.00 90 1016.1
20260902232730 18 248 14.5 24.1 0.00 0.00 0.00 90 1016.1
20260902232231 18 223 12.9 20.9 0.00 0.00 0.00 90 1016.0
20260902231729 18 226 9.7 20.9 0.00 0.00 0.00 90 1016.1
20260902231230 18 255 9.7 20.9 0.00 0.00 0.00 90 1016.3
20260902231102 18 250 12.9 19.3 0.00 0.00 0.00 90 1016.4
20260902230230 18 233 8.0 16.1 0.00 0.00 0.00 90 1016.4
20260902225731 18 252 9.7 16.1 0.00 0.00 0.00 90 1016.3
20260902225223 18 237 11.3 17.7 0.00 0.00 0.00 90 1016.2
20260902225053 18 195 9.7 17.7 0.00 0.00 0.00 90 1016.2
20260902224223 18 254 9.7 19.3 0.00 0.00 0.00 90 1016.3
20260902223719 18 237 11.3 19.3 0.00 0.00 0.00 90 1016.3
20260902223221 18 247 11.3 19.3 0.00 0.00 0.00 90 1016.3
20260902223100 18 252 11.3 17.7 0.00 0.00 0.00 90 1016.4
20260902222220 18 257 9.7 17.7 0.00 0.00 0.00 90 1016.5
20260902221718 18 257 9.7 17.7 0.00 0.00 0.00 91 1016.4
20260902221218 18 237 9.7 17.7 0.00 0.00 0.00 91 1016.3
20260902220717 18 234 8.0 17.7 0.00 0.00 0.00 91 1016.3
20260902220222 18 259 8.0 19.3 0.00 0.00 0.00 91 1016.3
20260902215717 18 235 11.3 19.3 0.00 0.00 0.00 91 1016.3
20260902215217 18 257 9.7 19.3 0.00 0.00 0.00 91 1016.1
20260902214717 18 224 9.7 17.7 0.00 0.00 0.00 91 1016.3
20260902214527 18 244 9.7 19.3 0.00 0.00 0.00 91 1016.4
20260902213716 18 254 9.7 22.5 0.00 0.00 0.00 91 1016.3
20260902213215 18 247 8.0 22.5 0.00 0.00 0.00 91 1016.1
20260902212721 18 241 14.5 20.9 0.00 0.00 0.00 91 1016.1
20260902212217 18 243 11.3 20.9 0.00 0.00 0.00 91 1016.1
20260902211716 18 247 9.7 20.9 0.00 0.00 0.00 91 1016.0
20260902211526 18 254 9.7 17.7 0.00 0.00 0.00 91 1016.2
20260902210717 18 251 8.0 17.7 0.00 0.00 0.00 91 1016.1
20260902210217 18 261 11.3 20.9 0.00 0.00 0.00 91 1016.1
20260902205716 18 255 8.0 20.9 0.00 0.00 0.00 91 1016.1
20260902205216 18 245 12.9 17.7 0.00 0.00 0.00 91 1016.1
20260902205039 18 265 11.3 22.5 0.00 0.00 0.00 91 1016.1
20260902204525 18 264 9.7 22.5 0.00 0.00 0.00 91 1016.2
20260902203717 18 269 8.0 19.3 0.00 0.00 0.00 91 1016.1
20260902203216 18 219 11.3 17.7 0.00 0.00 0.00 91 1016.1
20260902202717 18 185 9.7 16.1 0.00 0.00 0.00 91 1015.9
20260902202216 18 209 9.7 16.1 0.00 0.00 0.00 91 1015.9
20260902201719 18 245 9.7 14.5 0.00 0.00 0.00 91 1015.9
20260902201215 18 274 9.7 24.1 0.00 0.00 0.00 91 1016.0
20260902201041 18 254 14.5 24.1 0.00 0.00 0.00 91 1016.0
20260902200519 18 244 11.3 27.4 0.00 0.00 0.00 92 1016.1
20260902195718 18 248 12.9 27.4 0.00 0.00 0.00 92 1016.0
20260902195218 18 209 8.0 27.4 0.00 0.00 0.00 92 1016.0
20260902194717 18 261 16.1 27.4 0.00 0.00 0.00 92 1016.0
20260902194335 17 243 12.9 27.4 0.00 0.00 0.00 92 1015.9
20260902194313 17 235 11.3 27.4 0.00 0.00 0.00 92 1016.0
20260902193516 17 219 8.0 19.3 0.00 0.00 0.00 92 1015.9
20260902192712 17 252 6.4 17.7 0.00 0.00 0.00 92 1016.0
20260902192213 17 248 8.0 22.5 0.00 0.00 0.00 92 1016.0
20260902191713 17 233 9.7 22.5 0.00 0.00 0.00 92 1016.0
20260902191212 17 254 9.7 17.7 0.00 0.00 0.00 92 1016.0
20260902190712 17 223 9.7 17.7 0.00 0.00 0.00 92 1016.0
20260902190211 17 223 8.0 22.5 0.00 0.00 0.00 92 1016.0
20260902185712 17 255 11.3 22.5 0.00 0.00 0.00 92 1015.9
20260902185212 17 244 9.7 20.9 0.00 0.00 0.00 91 1015.9
20260902184711 17 220 9.7 19.3 0.00 0.00 0.00 92 1015.8
20260902184211 17 237 9.7 20.9 0.00 0.00 0.00 91 1015.8
20260902183712 17 235 11.3 27.4 0.00 0.00 0.00 91 1015.9
20260902183210 17 261 11.3 27.4 0.00 0.00 0.00 91 1015.9
20260902182708 17 223 8.0 19.3 0.00 0.00 0.00 91 1016.0
20260902182208 17 261 9.7 19.3 0.00 0.00 0.00 91 1016.0
20260902181708 17 217 9.7 17.7 0.00 0.00 0.00 91 1016.0
20260902181210 17 258 12.9 19.3 0.00 0.00 0.00 90 1016.0
20260902180706 17 224 11.3 20.9 0.00 0.00 0.00 90 1015.9
20260902180205 17 237 9.7 24.1 0.00 0.00 0.00 90 1016.0
20260902175950 17 224 8.0 24.1 0.00 0.00 0.00 90 1016.1
20260902175206 18 213 14.5 22.5 0.00 0.00 0.00 89 1016.0
20260902174706 18 221 9.7 22.5 0.00 0.00 0.00 89 1016.1
20260902174203 18 248 9.7 22.5 0.00 0.00 0.00 89 1016.1
20260902173702 18 240 8.0 25.7 0.00 0.00 0.00 89 1016.2
20260902173203 18 250 11.3 25.7 0.00 0.00 0.00 88 1016.2
20260902172703 18 227 9.7 25.7 0.00 0.00 0.00 88 1016.3
20260902172202 18 226 12.9 25.7 0.00 0.00 0.00 88 1016.3
20260902171705 18 250 6.4 24.1 0.00 0.00 0.00 87 1016.3
20260902171204 18 216 11.3 20.9 0.00 0.00 0.00 87 1016.3
20260902170659 18 313 11.3 25.7 0.00 0.00 0.00 87 1016.3
20260902170200 18 220 11.3 25.7 0.00 0.00 0.00 86 1016.3
20260902165659 18 216 14.5 24.1 0.00 0.00 0.00 86 1016.3
20260902165159 18 231 14.5 32.2 0.00 0.00 0.00 85 1016.4
20260902164659 18 219 17.7 32.2 0.00 0.00 0.00 85 1016.4
20260902164200 18 237 14.5 25.7 0.00 0.00 0.00 85 1016.3
20260902163946 18 238 16.1 32.2 0.00 0.00 0.00 84 1016.3
20260902163201 18 250 19.3 43.5 0.00 0.00 0.00 84 1016.2
20260902162659 18 235 19.3 43.5 0.00 0.00 0.00 83 1016.2
20260902162157 18 213 12.9 30.6 0.00 0.00 0.00 83 1016.3
20260902161657 18 255 14.5 30.6 0.00 0.00 0.00 83 1016.4
20260902161157 18 226 12.9 30.6 0.00 0.00 0.00 82 1016.5
20260902160945 18 235 12.9 30.6 0.00 0.00 0.00 82 1016.5
20260902160154 18 245 12.9 29.0 0.00 0.00 0.00 81 1016.5
20260902155654 18 241 12.9 29.0 0.00 0.00 0.00 81 1016.6
20260902155156 18 221 12.9 27.4 0.00 0.00 0.00 81 1016.6
20260902154726 18 217 12.9 27.4 0.00 0.00 0.00 81 1016.5
20260902154412 18 258 12.9 25.7 0.00 0.00 0.00 80 1016.9
20260902154340 18 212 12.9 29.0 0.00 0.00 0.00 80 1016.7
20260902152759 18 226 11.3 32.2 0.00 0.00 0.00 78 1016.9
20260902152743 18 245 16.1 32.2 0.00 0.00 0.00 79 1016.8
20260902151655 19 266 12.9 25.7 0.00 0.00 0.00 78 1017.0
20260902151445 19 213 11.3 25.7 0.00 0.00 0.00 78 1016.9
20260902150657 19 226 12.9 27.4 0.00 0.00 0.00 77 1017.0
20260902150158 19 219 12.9 29.0 0.00 0.00 0.00 77 1016.9
20260902145656 19 176 20.9 32.2 0.00 0.00 0.00 77 1017.0
20260902145155 19 241 17.7 32.2 0.00 0.00 0.00 77 1017.0
20260902144656 19 243 17.7 32.2 0.00 0.00 0.00 76 1017.0
20260902144440 19 189 11.3 24.1 0.00 0.00 0.00 76 1017.1